GLO7761 SBGL-SBEG

Flight info

Callsign GLO7761
Flight time 3h 46m
Altitude 36000
Route EDNAM UM409 MAMGI DCT MNS
Aircraft B738/M-SDE2E3FGHIRWXY/LB1

Departure

Time 2026-04-19 23:05
Airport Rio Galeão – Tom Jobim International Airport (SBGL)

Arrival

Time 2026-04-20 02:52
Airport Eduardo Gomes International Airport (SBEG)
Time Latitude Longitude Altitude Speed Heading
2026-04-19 22:42 -22.80994 -43.25320 31 ft 0 kts 108°
2026-04-19 22:54 -22.80993 -43.25322 31 ft 1 kts 109°
2026-04-19 22:55 -22.80988 -43.25337 30 ft 2 kts 108°
2026-04-19 22:55 -22.80983 -43.25353 30 ft 2 kts 108°
2026-04-19 22:55 -22.80977 -43.25368 30 ft 2 kts 139°
2026-04-19 22:55 -22.80965 -43.25375 30 ft 0 kts 161°
2026-04-19 22:56 -22.80962 -43.25376 30 ft 0 kts 158°
2026-04-19 22:57 -22.80989 -43.25381 30 ft 9 kts 220°
2026-04-19 22:58 -22.80969 -43.25454 28 ft 11 kts 310°
2026-04-19 22:58 -22.80919 -43.25523 27 ft 11 kts 298°
2026-04-19 22:58 -22.80886 -43.25593 27 ft 9 kts 298°
2026-04-19 22:58 -22.80861 -43.25637 27 ft 6 kts 303°
2026-04-19 22:59 -22.80827 -43.25682 27 ft 9 kts 327°
2026-04-19 22:59 -22.80750 -43.25669 25 ft 14 kts 34°
2026-04-19 22:59 -22.80722 -43.25648 25 ft 4 kts 35°
2026-04-19 22:59 -22.80664 -43.25602 24 ft 15 kts 37°
2026-04-19 23:00 -22.80590 -43.25534 24 ft 7 kts 61°
2026-04-19 23:00 -22.80564 -43.25510 24 ft 4 kts 304°
2026-04-19 23:00 -22.80589 -43.25547 24 ft 7 kts 217°
2026-04-19 23:00 -22.80644 -43.25588 24 ft 11 kts 213°
2026-04-19 23:01 -22.80716 -43.25645 25 ft 14 kts 215°
2026-04-19 23:01 -22.80801 -43.25709 27 ft 14 kts 215°
2026-04-19 23:01 -22.80892 -43.25779 27 ft 16 kts 216°
2026-04-19 23:01 -22.80993 -43.25860 25 ft 18 kts 217°
2026-04-19 23:02 -22.81095 -43.25927 24 ft 15 kts 182°
2026-04-19 23:02 -22.81175 -43.25881 24 ft 10 kts 177°
2026-04-19 23:02 -22.81235 -43.25922 24 ft 10 kts 246°
2026-04-19 23:02 -22.81278 -43.25996 22 ft 12 kts 248°
2026-04-19 23:03 -22.81250 -43.26090 21 ft 14 kts 305°
2026-04-19 23:03 -22.81191 -43.26178 21 ft 14 kts 306°
2026-04-19 23:03 -22.81129 -43.26271 19 ft 14 kts 303°
2026-04-19 23:03 -22.81165 -43.26348 18 ft 13 kts 188°
2026-04-19 23:04 -22.81244 -43.26330 18 ft 9 kts 165°
2026-04-19 23:04 -22.81291 -43.26297 19 ft 7 kts 126°
2026-04-19 23:04 -22.81316 -43.26258 19 ft 7 kts 126°
2026-04-19 23:04 -22.81384 -43.26159 21 ft 38 kts 126°
2026-04-19 23:05 -22.81686 -43.25707 23 ft 107 kts 126°
2026-04-19 23:05 -22.82244 -43.24869 24 ft 164 kts 126°
2026-04-19 23:05 -22.82997 -43.23721 200 ft 196 kts 126°
2026-04-19 23:05 -22.83664 -43.22466 1003 ft 194 kts 112°
2026-04-19 23:06 -22.83963 -43.20988 1591 ft 208 kts 91°
2026-04-19 23:06 -22.83730 -43.19411 2078 ft 218 kts 71°
2026-04-19 23:06 -22.83021 -43.17883 2522 ft 229 kts 59°
2026-04-19 23:06 -22.82100 -43.16392 2886 ft 245 kts 55°
2026-04-19 23:07 -22.81078 -43.14848 3424 ft 252 kts 54°
2026-04-19 23:07 -22.80091 -43.13314 4078 ft 252 kts 57°
2026-04-19 23:07 -22.79125 -43.11645 4455 ft 266 kts 61°
2026-04-19 23:07 -22.78298 -43.09806 5081 ft 266 kts 68°
2026-04-19 23:08 -22.77573 -43.07954 5724 ft 269 kts 67°
2026-04-19 23:08 -22.76757 -43.06108 6361 ft 272 kts 62°
2026-04-19 23:08 -22.75797 -43.04342 6960 ft 276 kts 58°
2026-04-19 23:08 -22.74715 -43.02597 7557 ft 280 kts 55°
2026-04-19 23:09 -22.73428 -43.01029 8085 ft 285 kts 33°
2026-04-19 23:09 -22.71610 -43.00275 8654 ft 283 kts
2026-04-19 23:09 -22.69660 -43.00372 9235 ft 282 kts 350°
2026-04-19 23:09 -22.67706 -43.00669 9776 ft 285 kts 345°
2026-04-19 23:10 -22.65794 -43.01244 10391 ft 284 kts 335°
2026-04-19 23:10 -22.63932 -43.02039 10813 ft 293 kts 335°
2026-04-19 23:10 -22.61966 -43.02844 11096 ft 308 kts 336°
2026-04-19 23:10 -22.59896 -43.03657 11383 ft 323 kts 337°
2026-04-19 23:11 -22.57744 -43.04494 11653 ft 338 kts 337°
2026-04-19 23:11 -22.55481 -43.05374 11903 ft 353 kts 337°
2026-04-19 23:11 -22.53101 -43.06304 12178 ft 366 kts 337°
2026-04-19 23:11 -22.50705 -43.07243 12681 ft 372 kts 338°
2026-04-19 23:12 -22.48243 -43.08207 13226 ft 376 kts 337°
2026-04-19 23:12 -22.45798 -43.09273 13731 ft 380 kts 333°
2026-04-19 23:12 -22.43411 -43.10492 14312 ft 382 kts 331°
2026-04-19 23:12 -22.41032 -43.11782 14888 ft 385 kts 330°
2026-04-19 23:13 -22.38641 -43.13084 15464 ft 388 kts 330°
2026-04-19 23:13 -22.36186 -43.14400 16030 ft 391 kts 331°
2026-04-19 23:13 -22.33756 -43.15677 16570 ft 395 kts 331°
2026-04-19 23:13 -22.31242 -43.16978 17127 ft 398 kts 332°
2026-04-19 23:14 -22.28755 -43.18255 17623 ft 401 kts 332°
2026-04-19 23:14 -22.26195 -43.19563 18132 ft 405 kts 332°
2026-04-19 23:14 -22.23632 -43.20870 18626 ft 409 kts 332°
2026-04-19 23:14 -22.21051 -43.22186 19104 ft 412 kts 332°
2026-04-19 23:15 -22.18445 -43.23516 19567 ft 416 kts 332°
2026-04-19 23:15 -22.15814 -43.24858 20021 ft 420 kts 332°
2026-04-19 23:15 -22.13181 -43.26201 20476 ft 423 kts 332°
2026-04-19 23:15 -22.10493 -43.27571 20920 ft 427 kts 331°
2026-04-19 23:16 -22.07799 -43.28944 21323 ft 431 kts 331°
2026-04-19 23:16 -22.05090 -43.30324 21714 ft 435 kts 331°
2026-04-19 23:16 -22.02315 -43.31737 22139 ft 439 kts 331°
2026-04-19 23:16 -21.99563 -43.33138 22548 ft 442 kts 331°
2026-04-19 23:17 -21.96790 -43.34549 23024 ft 443 kts 331°
2026-04-19 23:17 -21.93970 -43.35983 23471 ft 446 kts 331°
2026-04-19 23:17 -21.91159 -43.37412 23961 ft 446 kts 331°
2026-04-19 23:17 -21.88358 -43.38835 24368 ft 449 kts 331°
2026-04-19 23:18 -21.85524 -43.40274 24826 ft 450 kts 330°
2026-04-19 23:18 -21.82701 -43.41707 25266 ft 451 kts 330°
2026-04-19 23:18 -21.79849 -43.43198 25675 ft 452 kts 328°
2026-04-19 23:18 -21.77091 -43.44806 26092 ft 452 kts 326°
2026-04-19 23:19 -21.74367 -43.46507 26542 ft 451 kts 325°
2026-04-19 23:19 -21.71701 -43.48219 26961 ft 451 kts 324°
2026-04-19 23:19 -21.68984 -43.49977 27356 ft 452 kts 324°
2026-04-19 23:19 -21.66263 -43.51731 27706 ft 454 kts 324°
2026-04-19 23:20 -21.63573 -43.53452 28088 ft 455 kts 325°
2026-04-19 23:20 -21.60839 -43.55188 28408 ft 457 kts 325°
2026-04-19 23:20 -21.58095 -43.56918 28807 ft 457 kts 325°
2026-04-19 23:20 -21.55337 -43.58647 29172 ft 458 kts 325°
2026-04-19 23:21 -21.52547 -43.60388 29464 ft 460 kts 325°
2026-04-19 23:21 -21.49803 -43.62094 29721 ft 463 kts 325°
2026-04-19 23:21 -21.47003 -43.63830 30092 ft 462 kts 325°
2026-04-19 23:21 -21.44199 -43.65564 30502 ft 461 kts 326°
2026-04-19 23:22 -21.41422 -43.67280 30873 ft 461 kts 326°
2026-04-19 23:22 -21.38604 -43.69022 31220 ft 461 kts 326°
2026-04-19 23:22 -21.35800 -43.70755 31511 ft 461 kts 326°
2026-04-19 23:22 -21.33035 -43.72464 31855 ft 461 kts 326°
2026-04-19 23:23 -21.30265 -43.74175 32157 ft 461 kts 326°
2026-04-19 23:23 -21.27451 -43.75912 32475 ft 460 kts 326°
2026-04-19 23:23 -21.24685 -43.77636 32730 ft 461 kts 325°
2026-04-19 23:23 -21.21922 -43.79407 33045 ft 460 kts 324°
2026-04-19 23:24 -21.19175 -43.81198 33279 ft 461 kts 324°
2026-04-19 23:24 -21.16452 -43.82986 33676 ft 458 kts 324°
2026-04-19 23:24 -21.13734 -43.84771 34088 ft 455 kts 323°
2026-04-19 23:24 -21.11041 -43.86538 34408 ft 454 kts 323°
2026-04-19 23:25 -21.08358 -43.88297 34706 ft 453 kts 323°
2026-04-19 23:25 -21.05684 -43.90047 35004 ft 452 kts 323°
2026-04-19 23:25 -21.02976 -43.91816 35258 ft 452 kts 323°
2026-04-19 23:25 -21.00287 -43.93568 35602 ft 449 kts 323°
2026-04-19 23:26 -20.97631 -43.95296 35865 ft 449 kts 323°
2026-04-19 23:26 -20.94951 -43.97040 36096 ft 448 kts 323°
2026-04-19 23:26 -20.89598 -44.00520 36127 ft 450 kts 323°
2026-04-19 23:27 -20.84293 -44.03961 36126 ft 447 kts 323°
2026-04-19 23:27 -20.78950 -44.07424 36123 ft 448 kts 323°
2026-04-19 23:28 -20.73624 -44.10881 36126 ft 449 kts 322°
2026-04-19 23:28 -20.68303 -44.14357 36125 ft 448 kts 322°
2026-04-19 23:29 -20.62984 -44.17829 36127 ft 448 kts 322°
2026-04-19 23:29 -20.57635 -44.21287 36130 ft 449 kts 322°
2026-04-19 23:30 -20.52273 -44.24728 36123 ft 448 kts 322°
2026-04-19 23:30 -20.46914 -44.28162 36119 ft 447 kts 322°
2026-04-19 23:31 -20.41618 -44.31558 36121 ft 448 kts 322°
2026-04-19 23:31 -20.36243 -44.35015 36115 ft 448 kts 322°
2026-04-19 23:32 -20.30906 -44.38448 36117 ft 448 kts 322°
2026-04-19 23:32 -20.25601 -44.41856 36107 ft 447 kts 322°
2026-04-19 23:33 -20.20251 -44.45292 36111 ft 448 kts 322°
2026-04-19 23:33 -20.14932 -44.48704 36112 ft 448 kts 322°
2026-04-19 23:34 -20.09558 -44.52148 36107 ft 447 kts 322°
2026-04-19 23:34 -20.04250 -44.55547 36108 ft 446 kts 322°
2026-04-19 23:35 -19.98929 -44.58955 36102 ft 448 kts 321°
2026-04-19 23:35 -19.93608 -44.62358 36101 ft 447 kts 321°
2026-04-19 23:36 -19.88255 -44.65778 36099 ft 447 kts 322°
2026-04-19 23:36 -19.82922 -44.69183 36094 ft 447 kts 322°
2026-04-19 23:37 -19.77585 -44.72588 36086 ft 446 kts 322°
2026-04-19 23:37 -19.72277 -44.75973 36098 ft 446 kts 322°
2026-04-19 23:38 -19.66949 -44.79370 36087 ft 448 kts 322°
2026-04-19 23:38 -19.61610 -44.82767 36084 ft 446 kts 322°
2026-04-19 23:39 -19.56278 -44.86158 36080 ft 445 kts 322°
2026-04-19 23:39 -19.50938 -44.89550 36069 ft 446 kts 322°
2026-04-19 23:40 -19.45621 -44.92926 36063 ft 446 kts 322°
2026-04-19 23:40 -19.40304 -44.96300 36058 ft 445 kts 322°
2026-04-19 23:41 -19.34981 -44.99676 36051 ft 447 kts 322°
2026-04-19 23:41 -19.29669 -45.03042 36053 ft 446 kts 322°
2026-04-19 23:42 -19.24337 -45.06417 36050 ft 445 kts 322°
2026-04-19 23:42 -19.19017 -45.09782 36052 ft 446 kts 322°
2026-04-19 23:43 -19.13665 -45.13168 36055 ft 447 kts 322°
2026-04-19 23:43 -19.08345 -45.16526 36050 ft 445 kts 322°
2026-04-19 23:44 -19.03027 -45.19881 36036 ft 445 kts 322°
2026-04-19 23:44 -18.97710 -45.23235 36035 ft 445 kts 322°
2026-04-19 23:45 -18.92406 -45.26577 36038 ft 444 kts 322°
2026-04-19 23:45 -18.87059 -45.29945 36037 ft 445 kts 322°
2026-04-19 23:46 -18.81741 -45.33292 36041 ft 445 kts 322°
2026-04-19 23:46 -18.76416 -45.36641 36043 ft 445 kts 322°
2026-04-19 23:47 -18.71114 -45.39973 36042 ft 445 kts 322°
2026-04-19 23:47 -18.65782 -45.43321 36045 ft 445 kts 322°
2026-04-19 23:48 -18.60456 -45.46661 36047 ft 444 kts 322°
2026-04-19 23:48 -18.55157 -45.49982 36047 ft 444 kts 322°
2026-04-19 23:49 -18.49823 -45.53325 36054 ft 445 kts 322°
2026-04-19 23:49 -18.44509 -45.56653 36060 ft 444 kts 322°
2026-04-19 23:50 -18.39412 -45.60264 36063 ft 440 kts 316°
2026-04-19 23:50 -18.34552 -45.64118 36071 ft 437 kts 315°
2026-04-19 23:51 -18.29706 -45.68007 36078 ft 440 kts 316°
2026-04-19 23:51 -18.24809 -45.71889 36082 ft 440 kts 316°
2026-04-19 23:52 -18.19900 -45.75737 36086 ft 437 kts 316°
2026-04-19 23:52 -18.15027 -45.79540 36092 ft 439 kts 316°
2026-04-19 23:53 -18.10127 -45.83356 36092 ft 438 kts 317°
2026-04-19 23:53 -18.05204 -45.87186 36093 ft 438 kts 317°
2026-04-19 23:54 -18.00328 -45.90975 36094 ft 437 kts 317°
2026-04-19 23:54 -17.95442 -45.94770 36092 ft 437 kts 317°
2026-04-19 23:55 -17.90565 -45.98557 36085 ft 438 kts 316°
2026-04-19 23:55 -17.85629 -46.02387 36080 ft 439 kts 316°
2026-04-19 23:56 -17.80712 -46.06199 36073 ft 439 kts 316°
2026-04-19 23:56 -17.75818 -46.09987 36060 ft 438 kts 317°
2026-04-19 23:57 -17.70902 -46.13794 36057 ft 439 kts 317°
2026-04-19 23:57 -17.65989 -46.17595 36052 ft 439 kts 317°
2026-04-19 23:58 -17.61082 -46.21386 36049 ft 439 kts 317°
2026-04-19 23:58 -17.56134 -46.25208 36045 ft 439 kts 317°
2026-04-19 23:59 -17.51253 -46.28975 36046 ft 437 kts 317°
2026-04-19 23:59 -17.46339 -46.32766 36044 ft 439 kts 317°
2026-04-20 00:00 -17.41415 -46.36563 36041 ft 439 kts 317°
2026-04-20 00:00 -17.36493 -46.40353 36043 ft 440 kts 317°
2026-04-20 00:01 -17.31567 -46.44145 36044 ft 440 kts 317°
2026-04-20 00:02 -17.24164 -46.49839 36040 ft 439 kts 317°
2026-04-20 00:02 -17.19229 -46.53629 36041 ft 439 kts 317°
2026-04-20 00:03 -17.14328 -46.57395 36053 ft 440 kts 317°
2026-04-20 00:03 -17.09492 -46.61302 36055 ft 436 kts 313°
2026-04-20 00:04 -17.04907 -46.65427 36060 ft 436 kts 313°
2026-04-20 00:04 -17.00334 -46.69604 36060 ft 436 kts 313°
2026-04-20 00:05 -16.95766 -46.73732 36062 ft 437 kts 313°
2026-04-20 00:05 -16.91136 -46.77876 36070 ft 437 kts 313°
2026-04-20 00:06 -16.86503 -46.82002 36076 ft 437 kts 313°
2026-04-20 00:06 -16.81902 -46.86089 36085 ft 436 kts 313°
2026-04-20 00:07 -16.77268 -46.90203 36090 ft 439 kts 314°
2026-04-20 00:07 -16.72593 -46.94349 36097 ft 438 kts 314°
2026-04-20 00:08 -16.67952 -46.98460 36109 ft 437 kts 314°
2026-04-20 00:08 -16.63318 -47.02564 36115 ft 438 kts 314°
2026-04-20 00:09 -16.58690 -47.06660 36115 ft 436 kts 314°
2026-04-20 00:09 -16.54080 -47.10737 36118 ft 436 kts 314°
2026-04-20 00:10 -16.49453 -47.14828 36120 ft 437 kts 314°
2026-04-20 00:10 -16.44794 -47.18944 36117 ft 437 kts 314°
2026-04-20 00:11 -16.40155 -47.23039 36116 ft 438 kts 314°
2026-04-20 00:11 -16.35620 -47.27266 36120 ft 435 kts 310°
2026-04-20 00:12 -16.31413 -47.31723 36123 ft 433 kts 308°
2026-04-20 00:12 -16.27220 -47.36258 36127 ft 433 kts 309°
2026-04-20 00:13 -16.23015 -47.40750 36125 ft 433 kts 309°
2026-04-20 00:13 -16.18784 -47.45219 36127 ft 434 kts 309°
2026-04-20 00:14 -16.14564 -47.49647 36125 ft 433 kts 309°
2026-04-20 00:14 -16.10305 -47.54106 36122 ft 434 kts 309°
2026-04-20 00:15 -16.06052 -47.58553 36123 ft 433 kts 309°
2026-04-20 00:15 -16.01772 -47.63026 36118 ft 435 kts 309°
2026-04-20 00:16 -15.97509 -47.67479 36116 ft 435 kts 310°
2026-04-20 00:16 -15.93257 -47.71916 36115 ft 434 kts 310°
2026-04-20 00:17 -15.88977 -47.76381 36114 ft 434 kts 310°
2026-04-20 00:17 -15.84711 -47.80828 36115 ft 435 kts 310°
2026-04-20 00:18 -15.80447 -47.85271 36121 ft 435 kts 310°
2026-04-20 00:18 -15.76187 -47.89706 36124 ft 435 kts 310°
2026-04-20 00:19 -15.71911 -47.94154 36123 ft 434 kts 310°
2026-04-20 00:19 -15.67656 -47.98578 36119 ft 435 kts 310°
2026-04-20 00:20 -15.63368 -48.03034 36114 ft 435 kts 310°
2026-04-20 00:20 -15.59100 -48.07466 36109 ft 434 kts 310°
2026-04-20 00:21 -15.54836 -48.11890 36107 ft 435 kts 310°
2026-04-20 00:21 -15.50548 -48.16338 36102 ft 435 kts 310°
2026-04-20 00:22 -15.46241 -48.20720 36096 ft 436 kts 312°
2026-04-20 00:22 -15.41770 -48.24997 36093 ft 436 kts 313°
2026-04-20 00:23 -15.37252 -48.29258 36087 ft 438 kts 313°
2026-04-20 00:23 -15.32779 -48.33490 36083 ft 437 kts 313°
2026-04-20 00:24 -15.28291 -48.37754 36076 ft 438 kts 313°
2026-04-20 00:24 -15.23807 -48.42024 36078 ft 437 kts 313°
2026-04-20 00:25 -15.19333 -48.46287 36075 ft 438 kts 313°
2026-04-20 00:25 -15.14832 -48.50576 36071 ft 439 kts 313°
2026-04-20 00:26 -15.10340 -48.54852 36064 ft 439 kts 313°
2026-04-20 00:26 -15.05850 -48.59125 36062 ft 438 kts 313°
2026-04-20 00:27 -15.01350 -48.63402 36050 ft 439 kts 313°
2026-04-20 00:27 -14.96848 -48.67636 36040 ft 439 kts 314°
2026-04-20 00:28 -14.92333 -48.71858 36038 ft 439 kts 314°
2026-04-20 00:28 -14.87792 -48.76100 36030 ft 438 kts 314°
2026-04-20 00:29 -14.83277 -48.80321 36032 ft 439 kts 314°
2026-04-20 00:29 -14.78714 -48.84587 36028 ft 440 kts 314°
2026-04-20 00:30 -14.74173 -48.88831 36025 ft 439 kts 314°
2026-04-20 00:30 -14.69652 -48.93053 36022 ft 438 kts 314°
2026-04-20 00:31 -14.65113 -48.97291 36019 ft 439 kts 314°
2026-04-20 00:31 -14.60586 -49.01517 36010 ft 440 kts 314°
2026-04-20 00:32 -14.56057 -49.05740 36011 ft 439 kts 314°
2026-04-20 00:32 -14.51515 -49.09972 36010 ft 440 kts 314°
2026-04-20 00:33 -14.46975 -49.14199 36004 ft 440 kts 314°
2026-04-20 00:33 -14.42443 -49.18418 35998 ft 439 kts 314°
2026-04-20 00:34 -14.37913 -49.22633 35999 ft 439 kts 314°
2026-04-20 00:34 -14.33375 -49.26854 35987 ft 439 kts 315°
2026-04-20 00:35 -14.28829 -49.31079 35973 ft 439 kts 314°
2026-04-20 00:35 -14.24281 -49.35302 35963 ft 440 kts 314°
2026-04-20 00:36 -14.19735 -49.39521 35965 ft 440 kts 314°
2026-04-20 00:36 -14.15173 -49.43753 35958 ft 441 kts 315°
2026-04-20 00:37 -14.10603 -49.47989 35958 ft 440 kts 315°
2026-04-20 00:37 -14.06035 -49.52222 35959 ft 441 kts 315°
2026-04-20 00:38 -14.01497 -49.56415 35962 ft 440 kts 315°
2026-04-20 00:38 -13.96865 -49.60581 35963 ft 441 kts 316°
2026-04-20 00:39 -13.92224 -49.64706 35958 ft 441 kts 316°
2026-04-20 00:39 -13.87577 -49.68837 35956 ft 442 kts 316°
2026-04-20 00:40 -13.82932 -49.72974 35947 ft 443 kts 316°
2026-04-20 00:40 -13.78273 -49.77127 35942 ft 442 kts 316°
2026-04-20 00:41 -13.73621 -49.81273 35940 ft 442 kts 316°
2026-04-20 00:41 -13.68965 -49.85422 35937 ft 443 kts 316°
2026-04-20 00:42 -13.64301 -49.89577 35942 ft 442 kts 316°
2026-04-20 00:42 -13.59664 -49.93705 35943 ft 443 kts 316°
2026-04-20 00:43 -13.55004 -49.97852 35942 ft 443 kts 316°
2026-04-20 00:43 -13.50335 -50.02005 35941 ft 442 kts 316°
2026-04-20 00:44 -13.45693 -50.06131 35940 ft 442 kts 316°
2026-04-20 00:44 -13.41041 -50.10263 35942 ft 442 kts 316°
2026-04-20 00:45 -13.36372 -50.14408 35943 ft 443 kts 316°
2026-04-20 00:45 -13.31721 -50.18536 35944 ft 443 kts 316°
2026-04-20 00:46 -13.27065 -50.22666 35947 ft 444 kts 316°
2026-04-20 00:46 -13.22369 -50.26830 35948 ft 444 kts 317°
2026-04-20 00:47 -13.17706 -50.30962 35947 ft 443 kts 317°
2026-04-20 00:47 -13.13019 -50.35112 35946 ft 443 kts 317°
2026-04-20 00:48 -13.08362 -50.39234 35944 ft 443 kts 317°
2026-04-20 00:48 -13.03713 -50.43348 35943 ft 443 kts 317°
2026-04-20 00:49 -12.99021 -50.47497 35942 ft 443 kts 317°
2026-04-20 00:49 -12.94370 -50.51607 35941 ft 443 kts 317°
2026-04-20 00:50 -12.89688 -50.55742 35940 ft 443 kts 317°
2026-04-20 00:50 -12.85004 -50.59877 35936 ft 444 kts 317°
2026-04-20 00:51 -12.80324 -50.64007 35927 ft 444 kts 317°
2026-04-20 00:51 -12.75638 -50.68138 35926 ft 444 kts 317°
2026-04-20 00:52 -12.70985 -50.72240 35928 ft 443 kts 317°
2026-04-20 00:52 -12.66308 -50.76362 35927 ft 444 kts 317°
2026-04-20 00:53 -12.61592 -50.80514 35922 ft 445 kts 317°
2026-04-20 00:53 -12.56918 -50.84629 35920 ft 445 kts 317°
2026-04-20 00:54 -12.52215 -50.88766 35916 ft 444 kts 317°
2026-04-20 00:54 -12.47522 -50.92892 35919 ft 444 kts 317°
2026-04-20 00:55 -12.42838 -50.97008 35923 ft 444 kts 317°
2026-04-20 00:55 -12.38151 -51.01125 35926 ft 444 kts 317°
2026-04-20 00:56 -12.33460 -51.05243 35928 ft 445 kts 317°
2026-04-20 00:56 -12.28768 -51.09360 35933 ft 445 kts 317°
2026-04-20 00:57 -12.24079 -51.13473 35934 ft 444 kts 317°
2026-04-20 00:57 -12.19393 -51.17581 35938 ft 444 kts 317°
2026-04-20 00:58 -12.14697 -51.21696 35941 ft 445 kts 317°
2026-04-20 00:58 -12.09998 -51.25811 35944 ft 445 kts 318°
2026-04-20 00:59 -12.05304 -51.29921 35943 ft 444 kts 317°
2026-04-20 00:59 -12.00603 -51.34033 35946 ft 445 kts 318°
2026-04-20 01:00 -11.95871 -51.38171 35947 ft 445 kts 318°
2026-04-20 01:00 -11.91177 -51.42274 35948 ft 445 kts 318°
2026-04-20 01:01 -11.86469 -51.46388 35949 ft 446 kts 318°
2026-04-20 01:01 -11.81753 -51.50506 35949 ft 446 kts 318°
2026-04-20 01:02 -11.77037 -51.54622 35949 ft 445 kts 318°
2026-04-20 01:02 -11.72321 -51.58736 35948 ft 445 kts 318°
2026-04-20 01:03 -11.67628 -51.62829 35947 ft 446 kts 318°
2026-04-20 01:03 -11.62891 -51.66958 35945 ft 446 kts 318°
2026-04-20 01:04 -11.58183 -51.71059 35945 ft 447 kts 318°
2026-04-20 01:04 -11.53431 -51.75197 35945 ft 447 kts 319°
2026-04-20 01:05 -11.48709 -51.79307 35948 ft 447 kts 319°
2026-04-20 01:05 -11.43988 -51.83415 35950 ft 447 kts 318°
2026-04-20 01:06 -11.39259 -51.87528 35951 ft 446 kts 318°
2026-04-20 01:06 -11.34522 -51.91645 35949 ft 446 kts 319°
2026-04-20 01:07 -11.29805 -51.95744 35947 ft 447 kts 319°
2026-04-20 01:07 -11.25067 -51.99834 35947 ft 447 kts 319°
2026-04-20 01:08 -11.20263 -52.03910 35947 ft 449 kts 320°
2026-04-20 01:08 -11.15454 -52.07973 35946 ft 449 kts 319°
2026-04-20 01:09 -11.10656 -52.12030 35946 ft 448 kts 319°
2026-04-20 01:09 -11.05847 -52.16099 35944 ft 448 kts 320°
2026-04-20 01:10 -11.01075 -52.20141 35945 ft 448 kts 319°
2026-04-20 01:10 -10.93882 -52.26232 35942 ft 448 kts 319°
2026-04-20 01:11 -10.89096 -52.30282 35947 ft 448 kts 320°
2026-04-20 01:11 -10.84306 -52.34335 35955 ft 448 kts 320°
2026-04-20 01:12 -10.79496 -52.38403 35959 ft 448 kts 320°
2026-04-20 01:12 -10.74701 -52.42455 35969 ft 448 kts 320°
2026-04-20 01:13 -10.69900 -52.46511 35974 ft 449 kts 320°
2026-04-20 01:13 -10.65114 -52.50552 35974 ft 448 kts 320°
2026-04-20 01:14 -10.60302 -52.54613 35971 ft 448 kts 320°
2026-04-20 01:14 -10.55524 -52.58645 35969 ft 448 kts 320°
2026-04-20 01:15 -10.50704 -52.62711 35967 ft 448 kts 320°
2026-04-20 01:15 -10.45912 -52.66750 35963 ft 447 kts 320°
2026-04-20 01:16 -10.41135 -52.70775 35957 ft 445 kts 320°
2026-04-20 01:16 -10.36369 -52.74789 35957 ft 446 kts 320°
2026-04-20 01:17 -10.31592 -52.78812 35954 ft 449 kts 320°
2026-04-20 01:17 -10.26773 -52.82869 35953 ft 449 kts 320°
2026-04-20 01:18 -10.21941 -52.86935 35952 ft 449 kts 320°
2026-04-20 01:18 -10.17158 -52.90957 35952 ft 447 kts 320°
2026-04-20 01:19 -10.12392 -52.94963 35952 ft 445 kts 320°
2026-04-20 01:19 -10.07619 -52.98973 35943 ft 445 kts 320°
2026-04-20 01:20 -10.02806 -53.03015 35934 ft 448 kts 320°
2026-04-20 01:20 -9.97997 -53.07052 35938 ft 449 kts 320°
2026-04-20 01:21 -9.93199 -53.11080 35944 ft 449 kts 320°
2026-04-20 01:21 -9.88406 -53.15165 35949 ft 448 kts 319°
2026-04-20 01:22 -9.83821 -53.19401 35955 ft 448 kts 317°
2026-04-20 01:22 -9.79244 -53.23733 35960 ft 448 kts 317°
2026-04-20 01:23 -9.74706 -53.28009 35962 ft 447 kts 317°
2026-04-20 01:23 -9.70115 -53.32303 35965 ft 448 kts 317°
2026-04-20 01:24 -9.65511 -53.36589 35969 ft 449 kts 317°
2026-04-20 01:24 -9.60907 -53.40866 35971 ft 449 kts 317°
2026-04-20 01:25 -9.56307 -53.45134 35970 ft 448 kts 317°
2026-04-20 01:25 -9.51701 -53.49407 35966 ft 448 kts 317°
2026-04-20 01:26 -9.47119 -53.53657 35962 ft 447 kts 318°
2026-04-20 01:26 -9.42534 -53.57908 35966 ft 447 kts 318°
2026-04-20 01:27 -9.37943 -53.62163 35968 ft 447 kts 318°
2026-04-20 01:27 -9.33342 -53.66426 35967 ft 447 kts 318°
2026-04-20 01:28 -9.28754 -53.70674 35965 ft 447 kts 318°
2026-04-20 01:28 -9.24165 -53.74922 35963 ft 447 kts 318°
2026-04-20 01:29 -9.19572 -53.79173 35964 ft 447 kts 318°
2026-04-20 01:29 -9.14973 -53.83426 35966 ft 447 kts 318°
2026-04-20 01:30 -9.10407 -53.87649 35969 ft 447 kts 318°
2026-04-20 01:30 -9.05792 -53.91914 35971 ft 447 kts 318°
2026-04-20 01:31 -9.01194 -53.96164 35974 ft 447 kts 318°
2026-04-20 01:31 -8.96602 -54.00405 35975 ft 447 kts 318°
2026-04-20 01:32 -8.92036 -54.04622 35974 ft 446 kts 318°
2026-04-20 01:32 -8.87436 -54.08868 35974 ft 447 kts 318°
2026-04-20 01:33 -8.82852 -54.13097 35974 ft 447 kts 318°
2026-04-20 01:33 -8.78246 -54.17345 35975 ft 448 kts 318°
2026-04-20 01:34 -8.73652 -54.21581 35975 ft 448 kts 318°
2026-04-20 01:34 -8.69055 -54.25819 35980 ft 448 kts 318°
2026-04-20 01:35 -8.64437 -54.30073 35984 ft 447 kts 318°
2026-04-20 01:35 -8.59828 -54.34318 35988 ft 448 kts 318°
2026-04-20 01:36 -8.55243 -54.38539 35986 ft 447 kts 318°
2026-04-20 01:36 -8.50627 -54.42786 35987 ft 448 kts 318°
2026-04-20 01:37 -8.46016 -54.47030 35982 ft 448 kts 318°
2026-04-20 01:37 -8.41426 -54.51253 35981 ft 448 kts 319°
2026-04-20 01:38 -8.36795 -54.55510 35980 ft 449 kts 319°
2026-04-20 01:38 -8.32196 -54.59737 35980 ft 448 kts 319°
2026-04-20 01:39 -8.27577 -54.63982 35979 ft 448 kts 319°
2026-04-20 01:39 -8.22974 -54.68210 35979 ft 448 kts 319°
2026-04-20 01:40 -8.18373 -54.72436 35975 ft 448 kts 319°
2026-04-20 01:40 -8.13762 -54.76669 35977 ft 450 kts 319°
2026-04-20 01:41 -8.09130 -54.80920 35981 ft 450 kts 319°
2026-04-20 01:41 -8.04490 -54.85178 35981 ft 449 kts 319°
2026-04-20 01:42 -7.99883 -54.89403 35978 ft 449 kts 319°
2026-04-20 01:42 -7.95245 -54.93654 35978 ft 449 kts 319°
2026-04-20 01:43 -7.90611 -54.97900 35981 ft 450 kts 319°
2026-04-20 01:43 -7.85981 -55.02142 35985 ft 450 kts 319°
2026-04-20 01:44 -7.81363 -55.06372 35985 ft 450 kts 319°
2026-04-20 01:44 -7.76698 -55.10643 35983 ft 450 kts 319°
2026-04-20 01:45 -7.72076 -55.14871 35979 ft 451 kts 319°
2026-04-20 01:45 -7.67438 -55.19115 35976 ft 451 kts 319°
2026-04-20 01:46 -7.62767 -55.23389 35972 ft 450 kts 319°
2026-04-20 01:46 -7.58122 -55.27637 35968 ft 451 kts 319°
2026-04-20 01:47 -7.53500 -55.31862 35966 ft 451 kts 319°
2026-04-20 01:47 -7.48828 -55.36132 35965 ft 451 kts 319°
2026-04-20 01:48 -7.44184 -55.40375 35962 ft 452 kts 319°
2026-04-20 01:48 -7.39527 -55.44629 35961 ft 452 kts 319°
2026-04-20 01:49 -7.34859 -55.48886 35961 ft 454 kts 319°
2026-04-20 01:49 -7.30169 -55.53160 35963 ft 453 kts 319°
2026-04-20 01:50 -7.25465 -55.57399 35964 ft 454 kts 320°
2026-04-20 01:50 -7.20662 -55.61544 35959 ft 455 kts 321°
2026-04-20 01:51 -7.15838 -55.65661 35955 ft 453 kts 321°
2026-04-20 01:51 -7.11031 -55.69776 35956 ft 455 kts 321°
2026-04-20 01:52 -7.06211 -55.73915 35959 ft 457 kts 321°
2026-04-20 01:52 -7.01395 -55.78057 35959 ft 456 kts 321°
2026-04-20 01:53 -6.96544 -55.82233 35956 ft 458 kts 320°
2026-04-20 01:53 -6.91732 -55.86375 35953 ft 456 kts 320°
2026-04-20 01:54 -6.86893 -55.90539 35949 ft 457 kts 320°
2026-04-20 01:54 -6.82051 -55.94706 35948 ft 457 kts 320°
2026-04-20 01:55 -6.77218 -55.98863 35944 ft 457 kts 320°
2026-04-20 01:55 -6.72403 -56.03004 35941 ft 457 kts 320°
2026-04-20 01:56 -6.67567 -56.07161 35941 ft 457 kts 321°
2026-04-20 01:56 -6.62712 -56.11333 35940 ft 457 kts 320°
2026-04-20 01:57 -6.57870 -56.15492 35941 ft 455 kts 320°
2026-04-20 01:57 -6.53070 -56.19614 35942 ft 456 kts 321°
2026-04-20 01:58 -6.48222 -56.23777 35942 ft 455 kts 320°
2026-04-20 01:58 -6.43402 -56.27916 35942 ft 456 kts 320°
2026-04-20 01:59 -6.38585 -56.32050 35941 ft 456 kts 321°
2026-04-20 01:59 -6.33758 -56.36191 35940 ft 454 kts 320°
2026-04-20 02:00 -6.28971 -56.40299 35940 ft 455 kts 321°
2026-04-20 02:00 -6.24143 -56.44438 35941 ft 455 kts 321°
2026-04-20 02:01 -6.19327 -56.48567 35943 ft 456 kts 320°
2026-04-20 02:01 -6.14503 -56.52703 35939 ft 456 kts 320°
2026-04-20 02:02 -6.09668 -56.56847 35937 ft 456 kts 321°
2026-04-20 02:02 -6.04867 -56.60960 35936 ft 454 kts 320°
2026-04-20 02:03 -6.00066 -56.65073 35933 ft 454 kts 321°
2026-04-20 02:03 -5.95255 -56.69192 35938 ft 455 kts 321°
2026-04-20 02:04 -5.90425 -56.73326 35939 ft 455 kts 321°
2026-04-20 02:04 -5.85599 -56.77456 35940 ft 455 kts 321°
2026-04-20 02:05 -5.80769 -56.81589 35942 ft 455 kts 321°
2026-04-20 02:05 -5.75969 -56.85696 35944 ft 455 kts 321°
2026-04-20 02:06 -5.71163 -56.89852 35943 ft 454 kts 320°
2026-04-20 02:06 -5.66428 -56.94040 35940 ft 456 kts 320°
2026-04-20 02:07 -5.61663 -56.98269 35936 ft 456 kts 320°
2026-04-20 02:07 -5.56989 -57.02409 35928 ft 456 kts 320°
2026-04-20 02:08 -5.52192 -57.06648 35917 ft 457 kts 320°
2026-04-20 02:08 -5.47422 -57.10858 35919 ft 456 kts 320°
2026-04-20 02:09 -5.42662 -57.15059 35923 ft 456 kts 320°
2026-04-20 02:09 -5.37920 -57.19241 35926 ft 456 kts 320°
2026-04-20 02:10 -5.33143 -57.23452 35931 ft 457 kts 320°
2026-04-20 02:10 -5.28374 -57.27656 35930 ft 456 kts 320°
2026-04-20 02:11 -5.23607 -57.31857 35930 ft 457 kts 320°
2026-04-20 02:11 -5.18836 -57.36061 35930 ft 456 kts 320°
2026-04-20 02:12 -5.14047 -57.40278 35929 ft 457 kts 320°
2026-04-20 02:12 -5.09279 -57.44477 35929 ft 457 kts 320°
2026-04-20 02:13 -5.04488 -57.48696 35934 ft 457 kts 320°
2026-04-20 02:13 -4.99729 -57.52886 35934 ft 457 kts 320°
2026-04-20 02:14 -4.94952 -57.57091 35935 ft 457 kts 320°
2026-04-20 02:14 -4.90167 -57.61301 35936 ft 457 kts 320°
2026-04-20 02:15 -4.85390 -57.65504 35935 ft 456 kts 320°
2026-04-20 02:15 -4.80610 -57.69710 35935 ft 457 kts 321°
2026-04-20 02:16 -4.75828 -57.73914 35936 ft 457 kts 320°
2026-04-20 02:16 -4.71040 -57.78125 35933 ft 457 kts 321°
2026-04-20 02:17 -4.66255 -57.82332 35927 ft 456 kts 321°
2026-04-20 02:17 -4.61475 -57.86533 35926 ft 457 kts 321°
2026-04-20 02:18 -4.56706 -57.90725 35923 ft 456 kts 321°
2026-04-20 02:18 -4.51924 -57.94925 35922 ft 457 kts 321°
2026-04-20 02:19 -4.47155 -57.99115 35923 ft 456 kts 321°
2026-04-20 02:19 -4.42373 -58.03313 35921 ft 458 kts 321°
2026-04-20 02:20 -4.37599 -58.07506 35919 ft 457 kts 321°
2026-04-20 02:20 -4.32801 -58.11718 35918 ft 458 kts 321°
2026-04-20 02:21 -4.25633 -58.18011 35916 ft 455 kts 321°
2026-04-20 02:22 -4.20854 -58.22204 35916 ft 456 kts 321°
2026-04-20 02:22 -4.16061 -58.26409 35914 ft 456 kts 321°
2026-04-20 02:23 -4.11305 -58.30581 35911 ft 457 kts 321°
2026-04-20 02:23 -4.06517 -58.34782 35911 ft 457 kts 321°
2026-04-20 02:24 -4.01750 -58.38963 35900 ft 452 kts 321°
2026-04-20 02:24 -3.99419 -58.41010 35699 ft 443 kts 321°
2026-04-20 02:24 -3.97113 -58.43035 35319 ft 437 kts 321°
2026-04-20 02:24 -3.94820 -58.45048 34823 ft 433 kts 321°
2026-04-20 02:25 -3.92578 -58.47015 34313 ft 430 kts 321°
2026-04-20 02:25 -3.90311 -58.49003 33776 ft 427 kts 321°
2026-04-20 02:25 -3.88105 -58.50936 33265 ft 424 kts 321°
2026-04-20 02:25 -3.85882 -58.52885 32742 ft 421 kts 321°
2026-04-20 02:26 -3.83697 -58.54800 32269 ft 419 kts 321°
2026-04-20 02:26 -3.81506 -58.56720 31763 ft 417 kts 321°
2026-04-20 02:26 -3.79328 -58.58629 31252 ft 416 kts 320°
2026-04-20 02:26 -3.77189 -58.60600 30735 ft 416 kts 316°
2026-04-20 02:27 -3.75307 -58.62804 30218 ft 416 kts 307°
2026-04-20 02:27 -3.73762 -58.65216 29693 ft 416 kts 301°
2026-04-20 02:27 -3.72389 -58.67760 29160 ft 415 kts 298°
2026-04-20 02:27 -3.71100 -58.70349 28625 ft 414 kts 296°
2026-04-20 02:28 -3.69852 -58.72929 28101 ft 413 kts 296°
2026-04-20 02:28 -3.68670 -58.75528 27781 ft 406 kts 293°
2026-04-20 02:28 -3.67649 -58.78115 27533 ft 399 kts 291°
2026-04-20 02:28 -3.66714 -58.80694 27286 ft 394 kts 290°
2026-04-20 02:29 -3.65803 -58.83276 27045 ft 395 kts 289°
2026-04-20 02:29 -3.64882 -58.85880 26801 ft 396 kts 290°
2026-04-20 02:29 -3.63945 -58.88495 26552 ft 394 kts 290°
2026-04-20 02:29 -3.63024 -58.91031 26308 ft 391 kts 290°
2026-04-20 02:30 -3.62085 -58.93590 26062 ft 390 kts 290°
2026-04-20 02:30 -3.61150 -58.96122 25819 ft 389 kts 290°
2026-04-20 02:30 -3.60204 -58.98669 25574 ft 388 kts 290°
2026-04-20 02:30 -3.59271 -59.01181 25330 ft 386 kts 290°
2026-04-20 02:31 -3.58339 -59.03685 25088 ft 383 kts 290°
2026-04-20 02:31 -3.57403 -59.06197 24842 ft 382 kts 290°
2026-04-20 02:31 -3.56484 -59.08661 24600 ft 381 kts 290°
2026-04-20 02:31 -3.55562 -59.11134 24355 ft 379 kts 290°
2026-04-20 02:32 -3.54649 -59.13587 24112 ft 376 kts 290°
2026-04-20 02:32 -3.53735 -59.16045 23868 ft 375 kts 290°
2026-04-20 02:32 -3.52821 -59.18498 23626 ft 374 kts 290°
2026-04-20 02:32 -3.51924 -59.20902 23391 ft 372 kts 290°
2026-04-20 02:33 -3.51016 -59.23340 23151 ft 369 kts 290°
2026-04-20 02:33 -3.50127 -59.25726 22894 ft 369 kts 290°
2026-04-20 02:33 -3.49234 -59.28126 22493 ft 367 kts 290°
2026-04-20 02:33 -3.48352 -59.30496 22070 ft 366 kts 291°
2026-04-20 02:34 -3.47467 -59.32871 21635 ft 365 kts 291°
2026-04-20 02:34 -3.46580 -59.35248 21191 ft 365 kts 291°
2026-04-20 02:34 -3.45686 -59.37646 20743 ft 364 kts 291°
2026-04-20 02:34 -3.44813 -59.39988 20304 ft 363 kts 291°
2026-04-20 02:35 -3.43926 -59.42365 19860 ft 362 kts 291°
2026-04-20 02:35 -3.43052 -59.44711 19418 ft 361 kts 291°
2026-04-20 02:35 -3.42185 -59.47034 18973 ft 359 kts 291°
2026-04-20 02:35 -3.41320 -59.49351 18539 ft 354 kts 291°
2026-04-20 02:36 -3.40461 -59.51654 18109 ft 348 kts 291°
2026-04-20 02:36 -3.39630 -59.53884 17687 ft 343 kts 291°
2026-04-20 02:36 -3.38803 -59.56098 17271 ft 338 kts 291°
2026-04-20 02:36 -3.37991 -59.58274 16860 ft 333 kts 291°
2026-04-20 02:37 -3.37180 -59.60448 16449 ft 328 kts 291°
2026-04-20 02:37 -3.36392 -59.62559 16051 ft 323 kts 291°
2026-04-20 02:37 -3.35620 -59.64632 15670 ft 320 kts 291°
2026-04-20 02:37 -3.34843 -59.66716 15260 ft 319 kts 291°
2026-04-20 02:38 -3.34073 -59.68779 14867 ft 317 kts 291°
2026-04-20 02:38 -3.33295 -59.70860 14477 ft 316 kts 291°
2026-04-20 02:38 -3.32533 -59.72900 14089 ft 314 kts 291°
2026-04-20 02:38 -3.31770 -59.74944 13695 ft 313 kts 291°
2026-04-20 02:39 -3.31016 -59.76964 13313 ft 311 kts 291°
2026-04-20 02:39 -3.30261 -59.78984 12916 ft 310 kts 291°
2026-04-20 02:39 -3.29513 -59.80988 12521 ft 308 kts 291°
2026-04-20 02:39 -3.28760 -59.83004 12136 ft 305 kts 292°
2026-04-20 02:40 -3.28022 -59.84981 11773 ft 303 kts 292°
2026-04-20 02:40 -3.27294 -59.86930 11399 ft 302 kts 292°
2026-04-20 02:40 -3.26560 -59.88895 11022 ft 300 kts 292°
2026-04-20 02:40 -3.25824 -59.90865 10634 ft 299 kts 292°
2026-04-20 02:41 -3.25100 -59.92804 10255 ft 298 kts 292°
2026-04-20 02:41 -3.24376 -59.94743 9883 ft 297 kts 292°
2026-04-20 02:41 -3.23661 -59.96656 9647 ft 290 kts 292°
2026-04-20 02:41 -3.22960 -59.98530 9260 ft 290 kts 292°
2026-04-20 02:42 -3.22258 -60.00407 8899 ft 288 kts 292°
2026-04-20 02:42 -3.21556 -60.02280 8541 ft 286 kts 292°
2026-04-20 02:42 -3.20857 -60.04148 8165 ft 283 kts 292°
2026-04-20 02:42 -3.20177 -60.05958 7832 ft 276 kts 292°
2026-04-20 02:43 -3.19510 -60.07729 7503 ft 268 kts 292°
2026-04-20 02:43 -3.18861 -60.09453 7150 ft 262 kts 292°
2026-04-20 02:43 -3.18229 -60.11143 6831 ft 255 kts 292°
2026-04-20 02:43 -3.17611 -60.12799 6505 ft 252 kts 292°
2026-04-20 02:44 -3.17001 -60.14438 6185 ft 247 kts 292°
2026-04-20 02:44 -3.16409 -60.16035 5880 ft 242 kts 292°
2026-04-20 02:44 -3.15825 -60.17600 5583 ft 239 kts 292°
2026-04-20 02:44 -3.15244 -60.19148 5282 ft 237 kts 292°
2026-04-20 02:45 -3.14656 -60.20713 4977 ft 235 kts 292°
2026-04-20 02:45 -3.14033 -60.22195 4785 ft 227 kts 300°
2026-04-20 02:45 -3.13060 -60.23381 4569 ft 215 kts 329°
2026-04-20 02:45 -3.11735 -60.24015 4312 ft 209 kts 343°
2026-04-20 02:46 -3.10371 -60.24477 4071 ft 205 kts 346°
2026-04-20 02:46 -3.09023 -60.24862 3924 ft 195 kts 348°
2026-04-20 02:46 -3.07720 -60.25160 3761 ft 187 kts 352°
2026-04-20 02:46 -3.06458 -60.25361 3553 ft 182 kts 357°
2026-04-20 02:47 -3.05205 -60.25397 3386 ft 177 kts 17°
2026-04-20 02:47 -3.04224 -60.24729 3278 ft 173 kts 59°
2026-04-20 02:47 -3.03914 -60.23588 3188 ft 174 kts 85°
2026-04-20 02:47 -3.03866 -60.22372 3155 ft 172 kts 86°
2026-04-20 02:48 -3.03838 -60.21211 3101 ft 164 kts 87°
2026-04-20 02:48 -3.03837 -60.20061 2953 ft 165 kts 88°
2026-04-20 02:48 -3.03838 -60.18912 2709 ft 163 kts 88°
2026-04-20 02:48 -3.03839 -60.17806 2520 ft 151 kts 89°
2026-04-20 02:49 -3.03842 -60.16768 2282 ft 147 kts 89°
2026-04-20 02:49 -3.03844 -60.15754 2121 ft 146 kts 89°
2026-04-20 02:49 -3.03845 -60.14730 1907 ft 145 kts 89°
2026-04-20 02:49 -3.03846 -60.13721 1739 ft 145 kts 88°
2026-04-20 02:50 -3.03848 -60.12715 1548 ft 144 kts 89°
2026-04-20 02:50 -3.03852 -60.11713 1346 ft 144 kts 89°
2026-04-20 02:50 -3.03853 -60.10699 1161 ft 147 kts 89°
2026-04-20 02:50 -3.03855 -60.09675 941 ft 145 kts 91°
2026-04-20 02:51 -3.03858 -60.08658 723 ft 145 kts 89°
2026-04-20 02:51 -3.03847 -60.07649 567 ft 146 kts 90°
2026-04-20 02:51 -3.03855 -60.06615 401 ft 148 kts 90°
2026-04-20 02:51 -3.03859 -60.05579 273 ft 148 kts 90°
2026-04-20 02:52 -3.03860 -60.04621 269 ft 114 kts 91°
2026-04-20 02:52 -3.03864 -60.04048 269 ft 53 kts 90°
2026-04-20 02:52 -3.03864 -60.03842 269 ft 18 kts 88°
2026-04-20 02:52 -3.03776 -60.03770 269 ft 17 kts 357°
2026-04-20 02:53 -3.03692 -60.03840 269 ft 16 kts 292°
2026-04-20 02:53 -3.03663 -60.03947 269 ft 15 kts 284°
2026-04-20 02:53 -3.03638 -60.04047 269 ft 14 kts 284°
2026-04-20 02:53 -3.03613 -60.04141 269 ft 13 kts 286°
2026-04-20 02:54 -3.03582 -60.04227 269 ft 12 kts 296°
2026-04-20 02:54 -3.03529 -60.04295 269 ft 11 kts 316°
2026-04-20 02:54 -3.03467 -60.04347 269 ft 11 kts 328°
2026-04-20 02:54 -3.03396 -60.04374 269 ft 10 kts 341°
2026-04-20 02:55 -3.03327 -60.04390 269 ft 9 kts 350°
2026-04-20 02:55 -3.03263 -60.04406 269 ft 7 kts 346°
2026-04-20 02:55 -3.03247 -60.04409 269 ft 0 kts 346°